Location: Unspecified
(0.0000°N, 0.0000°E)
Time: 23:53:29
(UTC+00:00)

Courier 1B Rocket - Pass Details

Date: 03 October 2020
Orbit: 920 x 1202 km, 28.2° (Epoch: 28 October)

Event Time Altitude Azimuth Distance (km) Brightness Sun altitude
Rises 02:53:42 0° 269° (W) 3,919 - -43.7°
Reaches altitude 10° 02:57:13 10° 283° (WNW) 2,907 - -42.8°
Maximum altitude 03:02:31 22° 332° (NNW) 2,060 - -41.5°
Drops below altitude 10° 03:07:35 10° 22° (NNE) 2,745 - -40.2°
Exits shadow 03:08:00 - 24° (NNE) 2,853 7.6 -40.1°
Sets 03:10:48 0° 37° (NE) 3,647 8.3 -39.4°
